User: anonymous   Login
Location: Ostrava
(49.8330°N, 18.2830°E)
Time: 18:53:14
(UTC+01:00)
Language:

Cosmos 1263 Rocket - Orbit

View from above orbital plane
View from above orbital plane
View from above satellite
View from above satellite

Ground track
Ground track

The orbit data is extracted from the following two-line orbital elements,

1 12389U 81033B   14303.48248383  .00067708  00000-0  82808-3 0  1347
2 12389 082.8707 336.3294 0175101 345.6598 136.1900 15.43852893730516
Epoch (UTC): 30 October 2014 11:34:46
Eccentricity: 0.0175101
inclination: 82.8707°
perigee height: 315 km
apogee height: 554 km
right ascension of ascending node: 336.3294°
argument of perigee: 345.6598°
revolutions per day: 15.43852893
mean anomaly at epoch: 136.1900°
orbit number at epoch: 73051

The dashed part of the orbit path shows where the satellite is in the earth's shadow,  

DLR